Tracking 25612 objects as of 19-May-2022
HD Live streaming from Space Station
objects crossing your sky now

SL-19 DEB

Track SL-19 DEB now!
10-day predictions


NORAD ID: 23487
Int'l Code: 1994-085K
Perigee: 1,881.6 km
Apogee: 2,149.6 km
Inclination: 64.9 °
Period: 127.4 minutes
Semi major axis: 8386 km
RCS: 0.0667 m2 (small)
Launch date: December 26, 1994
Source: Commonwealth of Independent States (former USSR) (CIS)
Launch site: TYURATAM MISSILE AND SPACE COMPLEX (TTMTR)

Note: This is SATELLITE DEBRIS
aabbcc
Your satellite tracking list
Your tracking list is empty




NASA's NSSDC Master Catalog

Two Line Element Set (TLE):
1 23487U 94085K   22139.09308263 -.00000031  00000-0  30828-3 0  9997
2 23487  64.9356 172.4519 0159742 117.7206 273.5418 11.30380383130857
Source of the keplerian elements: AFSPC